Reflectivity
-20 -20 -20 -20 -20 -20 -20 -20 -20 -20 -20 -20 -20 -20 -20 -20 -20 -20 -20 -20 -20 -20 -20 -20 11 14 6 3 18 5 11 -20 -20 -20 -20 7 -20 -20 -20 -12 2 7 5 -14 7 -20 -20 -20 -20
-20 -20 -20 -20 -20 -19 -20 -20 -20 -20 -20 -20 -20 -18 -20 -20 -20 -20 -20 -20 -20 -20 -20 -20 -20 -20 -20 -19 -20 -15 -5 -20 -20 -20 -20 -16 -15 -16 -19 -20 -20 -20 -0 -20 2 -20 28 -20 5
-20 -20 -20 -20 -20 -20 -20 -20 -20 -20 -20 -20 -20 -18 -20 -20 -20 -20 -20 -20 -20 -20 -20 -20 -20 -6 2 -18 -15 -5 -4 -20 -13 -20 -5 -20 -17 -20 -14 -19 -20 -20 3 -20 -20 -20 -20 -20 -20
-20 -20 -18 -20 -20 -20 -20 -20 -20 -20 -20 -20 -20 -20 -20 -20 -20 -20 -20 -20 -20 -20 -20 9 -20 -0 -10 -19 -20 -20 -20 -20 -20 -20 -20 -18 -20 -20 -20 -19 -20 -20 -20 -20 -20 -20 -20 -20 -20
-20 -20 -20 -20 -20 -20 -20 -20 -20 -20 -20 -20 -20 -20 -20 -20 -20 -20 -20 -20 -20 -20 -20 -20 -12 11 10 4 -20 -19 -15 -16 -20 -20 -20 -17 -20 -0 -20 -5 6 2 -14 -20 -20 -20 -20 -20 -19
-20 -20 -20 -20 -20 -20 -20 -20 -20 -20 -20 -20 -20 -20 -20 -20 -20 -20 -20 -20 -20 -20 1 -5 10 -15 7 7 -10 -9 -20 -20 5 -20 -20 -12 -20 -20 -3 12 1 -1 -20 -20 -20 -20 -20 -18 -13
-20 -20 -10 -10 -20 -20 -20 -20 -20 -20 -20 -20 -20 -20 -20 -20 -20 -20 -20 -20 -20 -20 -14 -14 3 -8 3 -19 -11 -7 -16 -20 -20 -20 -20 -20 -14 6 9 -20 -20 -20 -20 -20 -20 -20 -20 -20 -12
-20 -20 -20 -17 -20 -20 -20 -20 -20 -20 -20 -20 -20 -20 -20 -20 -20 -20 -20 -20 31 -20 -20 -20 -20 2 -20 -20 -8 -15 7 -20 -8 -20 -20 -20 5 7 -20 -20 -20 -20 -20 -20 -20 -20 -20 -20 -20
-19 -20 4 7 -20 -20 -20 -20 -20 -20 -20 -20 -20 -20 -20 -20 -20 -20 -20 -20 -20 -20 -20 -20 -20 -20 -20 -20 -11 -13 -15 -13 -20 -20 -18 -20 -20 -20 -20 -20 -20 -20 -20 -20 -20 -20 -20 -20 -20
-8 -5 19 24 -2 -20 -20 -20 -20 -20 -20 -20 -20 -20 -20 -20 -20 -20 -20 -20 -20 -20 -20 -20 -20 -20 -20 -20 -16 -20 -20 -20 -20 -20 -20 -20 -20 -20 -20 -20 -20 -20 -20 -20 -16 -1 1 -20 -20
-20 -6 8 19 22 -20 -20 9 -20 -20 -20 -20 -20 -20 -20 -20 -20 -20 -20 -20 -20 -20 -20 -20 -20 -20 -20 -20 -20 -20 -20 -20 -20 -20 -20 -20 -20 -20 -20 -20 -20 -20 -20 -20 -20 -20 -20 -20 -20
-20 18 25 27 13 -20 -20 -20 -20 -20 -11 -20 -20 -20 -20 -20 -20 -20 -20 -20 -20 -20 -20 -20 -20 -20 -20 -20 3 -20 -20 -20 -20 -20 -20 -20 -20 -20 -20 -20 -20 -20 -20 -20 -20 -20 -20 -20 -20
-20 -20 18 21 25 -20 -14 8 -20 -20 -19 -20 -20 -20 -20 -20 10 -1 -20 -20 -20 -20 -20 -20 -20 -20 -20 -20 -20 -20 -20 -20 -12 -20 -20 -20 -20 -20 -20 -20 -20 -20 -20 -20 -20 -20 -20 -20 -20
-20 -20 -18 3 26 -6 -20 12 12 -20 -20 -13 -20 -20 -20 -20 -20 -20 -20 -20 -20 -20 -20 -20 -20 -20 -20 -20 -20 -20 -20 -20 -20 -20 -20 -20 -20 -20 -20 -20 -20 -20 -20 -20 -20 -20 -20 -20 -20
-20 19 0 26 21 25 1 16 9 -20 0 -20 -20 -20 -20 -20 -20 -20 -20 -20 -20 -20 -20 -20 -20 -20 -20 -20 -20 -20 -20 -20 -20 -20 -20 -20 -20 -20 -20 -20 -20 -20 -20 -20 -20 -20 -20 -20 -20
-20 -14 29 24 33 30 24 23 -20 -20 -16 -20 -20 -20 -20 -20 -20 -20 -20 -20 -20 -20 -20 -20 -20 -20 -20 -20 -20 -20 -20 -10 -20 -20 -20 -20 -20 -20 -20 -20 -20 -20 -20 -20 -20 -20 -20 -20 -20
-20 -16 28 16 28 25 23 30 22 6 3 -2 -20 -20 -20 -20 -20 -20 -20 -20 -20 -20 -20 -20 -20 -20 -20 -20 -20 -20 -20 -20 -20 -20 -20 -20 -20 -20 -20 7 -20 -20 -20 -20 -20 -20 -20 -20 -20
-20 5 1 28 33 29 32 32 16 -20 22 -20 -20 -20 -20 -20 -20 -20 -20 -20 -20 -20 -20 -20 -20 -20 -20 -20 -20 -20 -20 -20 -20 -20 -20 -20 -20 -20 -20 -20 -20 -20 -20 -20 -20 -20 -20 -20 -20
-20 -20 -20 -4 21 37 39 35 21 14 -20 -20 -19 -20 -20 -20 -20 -20 -20 -20 -20 -20 -20 -20 -20 -20 -20 -20 -20 -20 -20 -20 -20 -20 -16 -20 -20 -20 -20 -20 -20 -20 -20 -20 -20 -20 -20 -20 -20
-20 -16 -20 -13 18 25 37 37 41 25 20 -6 -20 -20 -20 -20 -20 -20 -20 -20 -20 -20 -20 -20 -20 -20 -20 -20 -20 -20 -20 -20 -6 -20 -20 -20 -20 9 -20 -20 -20 -20 -20 -20 -20 -20 -20 -20 -20
-20 -20 -12 -20 -20 -4 13 31 39 29 31 11 -20 -12 -20 -20 -20 -20 -20 -20 -20 -20 -20 -20 -20 -20 -20 -20 -20 -20 -20 -20 -20 -20 -20 -20 -20 -20 -20 -20 -20 -20 -20 -20 -20 -20 -20 -20 -20
-20 -20 -20 -20 -20 -18 7 14 42 39 19 -2 -18 -4 -20 -20 -20 -20 -20 -20 -20 -20 -20 -20 -20 -20 -20 -20 -20 -20 -20 -20 -20 16 -19 -20 -20 -20 -20 -20 -20 -20 -20 -20 -20 -20 -20 -20 -20
-20 -20 -20 -20 -20 -20 6 17 32 34 30 6 -14 -4 -20 -20 -20 -20 -20 -20 -20 -20 -20 -20 -20 -20 -20 -20 -20 -20 -20 -20 -20 -20 -20 -20 -20 -20 -20 -20 -20 -20 -20 -20 -20 -20 -20 -20 -20
-20 -20 -20 -20 -20 -20 -20 -5 10 18 -20 5 21 6 -18 -20 -18 -20 -20 -20 -20 -20 -20 -20 -20 -20 -20 -20 -20 -20 -20 -20 -20 -20 -20 -20 -20 -20 -20 -20 -20 -20 -20 -20 -20 -20 -20 -20 -20
-20 -20 -20 -20 -20 -13 -20 -18 5 -18 -2 3 18 -6 17 -20 1 -20 -20 -20 -20 -20 -20 -20 -20 -20 -20 -20 -20 -20 -20 -20 -20 -20 -20 -20 -20 -20 -20 -20 -20 -20 -20 -20 -20 -20 -20 -20 -20
-20 -20 -20 -20 -9 -15 -20 -9 -14 -20 7 21 6 22 1 -12 16 -11 -20 -20 -20 -20 -20 -20 -20 -20 -20 -20 -20 -20 -20 -20 -20 -20 -20 -20 -20 -20 -20 -20 -20 -20 -20 -20 -20 -20 -20 -20 -20
-20 -20 -16 -20 -20 -20 -20 -20 -20 -10 -16 5 33 19 20 3 -2 16 -12 -20 -20 -20 -20 -20 -20 -20 -20 -20 -20 -20 -20 -20 -20 -20 -20 23 -20 -20 -20 -20 -20 -14 -20 -20 -20 -20 -20 -20 -20
-20 5 -20 -20 -20 -20 -20 -4 -20 -14 -19 21 17 -19 -1 26 9 -15 -4 -20 -20 -20 -20 -20 -20 -20 -20 -20 -20 -20 -20 -20 -20 -20 -20 16 -20 -20 -20 -20 -20 -20 -20 -20 -20 -20 -20 -20 -20
-20 -20 -20 -20 -20 -20 -20 -18 -12 -7 -17 -12 -11 5 -20 -20 5 5 34 -4 -14 -20 -20 -20 -20 -20 -20 -20 -20 -20 -20 -20 -20 -20 -20 -20 -20 -20 -20 -20 -20 -20 -20 -20 -20 -20 -20 -20 -20
-20 17 -20 -20 -20 -20 -20 -20 -20 2 -14 -20 -20 -20 -20 -20 -20 -1 19 -1 7 -20 -20 -20 -20 -20 -20 -20 -20 -20 24 -20 -20 -20 -20 -20 -20 -20 -20 -20 -20 -20 -20 -20 -1 -20 -20 -20 -20
Wind_Speed
5 4 2 2 3 3 2 3 2 7 9 7 17 5 6 3 1 5 1 8 9 6 4 4 5 7 9 10 12 12 11 13 12 12 13 12 11 11 11 11 11 12 12 13 14 13 12 12 11
2 5 0 1 5 4 3 2 5 4 6 17 8 6 7 4 4 7 7 6 9 7 4 4 6 7 9 9 10 12 12 14 13 13 12 11 11 10 10 11 11 10 11 12 12 11 11 10 10
3 3 1 3 3 3 5 2 9 10 5 6 5 7 5 2 5 8 6 11 9 6 5 6 9 8 9 10 11 11 13 12 12 12 11 11 11 11 11 10 10 10 10 11 11 10 9 10 12
0 1 1 4 3 2 6 8 4 5 8 7 10 8 5 3 7 6 12 11 9 6 5 8 11 11 10 10 11 11 12 11 12 12 12 10 11 10 9 9 9 9 9 10 9 8 8 9 10
2 2 4 3 2 2 6 7 10 6 5 7 4 6 4 3 12 13 11 10 10 6 5 6 10 10 11 10 12 12 12 13 12 12 11 10 8 7 7 6 6 6 8 8 8 7 9 9 12
3 3 2 3 3 5 5 7 10 12 12 14 11 8 2 7 12 10 10 8 8 7 5 5 10 10 11 10 11 12 12 12 12 10 10 9 8 8 7 7 7 6 8 8 7 7 8 9 12
1 2 1 2 5 4 7 9 11 13 12 6 12 6 3 5 7 10 9 7 7 5 5 5 5 8 11 11 12 12 11 11 11 10 9 9 9 9 7 7 7 6 7 7 6 6 7 7 9
3 2 2 3 5 4 8 4 14 17 5 13 11 7 7 6 11 9 8 7 5 5 4 5 4 5 4 5 11 12 11 10 11 10 9 10 10 9 7 7 6 7 6 6 5 5 5 6 7
3 4 2 3 1 2 3 7 4 6 14 4 3 7 10 15 13 12 9 6 4 4 3 4 5 5 4 3 6 10 11 11 10 9 9 7 3 4 5 4 6 7 7 6 6 6 6 6 8
4 2 2 2 3 5 8 13 8 8 12 8 14 14 15 17 16 14 10 8 6 5 4 3 4 5 4 3 5 3 4 3 3 3 5 3 3 2 4 6 8 8 8 8 8 10 8 7 3
4 5 6 7 5 3 6 2 4 17 6 14 21 19 16 15 12 12 10 9 8 8 5 5 4 4 4 3 3 2 2 2 2 4 4 1 2 2 3 3 3 4 8 4 5 6 4 4 3
5 6 6 7 4 2 4 6 3 16 8 17 20 22 19 15 14 12 12 8 7 9 7 7 6 4 3 3 2 3 2 2 2 3 3 2 1 2 2 3 4 4 3 4 4 3 4 5 4
3 6 7 3 4 2 4 8 3 12 18 18 20 18 19 15 12 10 10 9 8 8 6 8 6 6 5 4 3 2 3 3 3 2 2 4 3 3 3 3 2 2 1 1 4 3 3 5 6
5 8 5 2 4 3 3 5 3 10 16 20 20 19 17 17 16 13 10 10 10 7 7 7 8 6 6 4 4 4 3 4 4 3 4 6 3 2 3 2 1 2 2 1 2 3 3 4 4
12 8 4 1 1 4 4 7 7 16 17 21 19 16 17 17 17 17 15 13 12 9 8 8 8 7 7 6 5 4 4 4 3 4 5 5 3 3 4 2 2 2 1 2 1 1 2 3 3
5 4 2 4 2 1 6 4 2 18 20 20 19 16 17 17 20 15 14 12 9 9 9 8 8 10 7 6 5 4 4 4 3 3 3 5 6 5 3 2 2 2 4 4 4 3 3 2 1
6 2 4 3 8 4 2 3 6 14 20 18 17 16 16 15 15 13 14 13 12 11 9 7 7 10 8 3 4 4 4 3 4 3 2 4 6 5 3 2 1 1 3 4 2 2 1 2 1
2 4 8 3 4 3 5 7 7 4 14 19 15 13 18 19 18 17 15 13 11 9 8 8 6 7 6 5 4 4 3 2 2 3 4 6 4 5 5 2 2 4 3 4 2 1 2 1 1
5 5 10 3 3 3 3 4 9 9 3 11 10 16 17 20 14 15 14 13 11 6 8 9 9 6 7 2 3 4 2 1 1 2 2 3 4 3 6 3 4 1 3 2 4 2 3 3 3
9 9 4 4 3 1 5 9 6 9 4 2 7 18 19 15 15 14 13 12 12 12 10 8 10 7 5 3 2 3 3 2 1 1 2 2 3 3 4 6 4 4 2 4 6 5 2 3 3
2 6 7 7 6 3 1 3 5 6 1 4 4 10 18 20 19 16 15 14 12 12 11 11 10 9 6 6 4 3 3 3 2 1 1 0 1 3 1 4 4 4 3 3 3 2 4 3 4
5 6 8 14 6 2 1 4 6 7 6 4 3 4 14 19 17 19 16 15 13 13 8 8 7 8 7 8 6 5 4 3 3 2 1 1 1 2 4 1 4 3 2 3 1 1 2 2 2
4 12 11 5 4 5 5 2 3 9 8 7 8 6 7 19 22 22 20 17 14 11 11 9 8 7 7 7 7 5 4 3 2 2 3 2 1 0 4 5 4 4 3 3 3 2 3 2 2
17 9 6 0 2 2 5 3 4 8 20 13 7 7 7 15 17 19 17 14 12 9 9 8 8 7 7 7 7 8 7 5 3 3 3 3 2 2 1 5 5 3 3 3 2 2 2 3 4
6 5 2 2 3 3 4 2 11 9 9 18 14 7 9 7 15 15 14 13 11 12 11 10 9 8 7 7 7 8 8 7 7 6 4 4 3 2 4 2 4 3 2 4 3 3 2 1 2
7 6 7 7 5 3 3 6 6 6 9 15 5 7 10 8 14 16 17 14 14 15 13 11 10 7 7 7 7 6 7 4 4 4 4 4 3 3 3 4 4 5 5 4 3 2 2 3 4
7 4 5 8 3 4 3 6 5 9 6 15 20 23 15 10 7 16 14 14 12 12 14 14 12 8 8 8 6 6 5 5 5 6 4 3 4 3 5 5 5 5 4 4 3 3 3 3 3
8 6 3 3 5 3 5 7 5 8 12 12 14 20 20 23 11 7 11 15 13 13 11 10 10 11 8 7 5 5 6 5 5 4 6 4 3 2 3 3 3 2 2 3 3 3 3 3 2
1 2 5 5 5 6 3 8 9 14 13 16 14 19 19 20 19 10 6 11 13 12 12 11 10 9 8 6 6 5 4 4 4 4 5 5 4 3 4 5 4 4 5 5 4 4 4 4 3
2 0 4 6 4 2 4 8 4 9 7 10 12 14 13 16 15 15 9 7 11 12 11 11 7 6 7 7 6 4 3 1 4 5 6 5 5 4 4 4 4 4 5 4 4 6 5 5 4
Wind_Direction
175 175 160 104 63 73 75 17 136 120 147 210 160 167 124 24 123 187 103 139 124 126 154 165 119 108 95 98 100 105 110 110 113 117 115 108 115 107 111 110 96 93 99 96 99 93 93 92 99
181 171 75 7 76 69 24 354 97 86 118 99 96 106 63 57 63 106 106 139 125 133 141 134 133 131 114 123 113 113 116 112 112 112 113 107 109 118 109 102 101 97 90 98 96 93 83 81 98
206 191 108 94 100 127 130 3 118 109 97 96 110 75 74 80 104 129 130 130 107 115 130 148 142 144 133 133 124 121 118 121 114 110 115 118 117 112 115 115 108 107 96 97 94 91 77 73 84
346 85 59 81 59 8 131 163 158 99 72 54 107 64 67 159 145 137 131 121 113 132 148 162 160 147 139 128 117 123 120 121 120 122 122 133 120 120 108 103 101 97 98 93 98 90 75 68 107
19 42 52 86 112 102 124 148 133 106 82 93 100 93 55 16 107 127 128 126 133 142 158 148 157 138 140 138 132 130 131 133 129 130 129 125 121 123 114 104 111 104 98 95 97 85 65 51 128
18 95 79 116 118 90 118 149 114 101 104 104 91 94 37 134 128 136 125 128 136 141 142 147 150 144 138 139 129 137 138 135 131 126 126 123 129 123 115 102 112 108 91 93 87 72 62 64 95
118 82 143 35 122 103 145 152 131 130 125 90 132 86 108 151 132 128 125 125 129 117 116 124 133 147 143 143 145 140 142 138 136 128 124 128 132 120 123 102 99 92 88 87 84 70 65 65 73
104 118 173 38 145 165 152 123 148 128 88 114 145 144 177 178 141 122 116 108 119 112 118 132 116 113 130 151 142 143 146 140 139 140 143 131 125 111 97 61 82 79 76 72 64 55 53 53 56
176 57 21 350 108 26 155 121 174 88 130 122 192 124 149 142 135 123 125 119 110 117 133 125 131 133 140 138 148 143 146 145 151 152 146 90 77 91 92 101 78 64 53 53 42 33 27 25 23
77 102 241 185 33 14 327 139 136 121 138 114 103 109 132 144 145 140 148 152 150 150 170 149 146 152 154 142 108 106 138 113 127 102 76 65 58 75 97 65 58 51 37 29 22 16 18 33 353
172 158 195 257 236 313 332 197 90 146 167 157 145 144 152 151 146 144 155 171 169 166 171 166 178 178 157 123 137 115 104 112 122 99 84 41 97 77 49 35 13 16 8 15 7 358 355 331 303
134 181 177 256 209 249 259 307 127 170 162 157 149 152 154 157 158 164 158 163 162 171 179 169 175 171 170 150 132 125 128 123 120 135 164 177 165 115 77 41 358 9 7 4 5 354 324 314 293
182 169 171 200 114 205 335 277 260 198 149 148 150 157 160 158 165 164 167 155 167 175 171 175 166 176 170 162 174 134 163 149 159 178 184 162 164 183 124 50 32 34 349 353 346 329 327 325 317
162 156 179 235 217 258 208 221 253 187 152 154 161 163 165 162 163 164 162 169 173 168 178 175 175 179 168 166 184 173 169 179 164 177 201 190 166 168 94 77 68 281 263 302 278 296 325 333 317
119 131 103 159 155 324 308 239 198 165 163 164 172 167 165 165 162 174 176 174 171 172 165 178 180 173 178 189 174 171 188 171 176 177 188 173 140 129 155 194 220 249 54 282 317 297 349 321 287
171 133 163 77 218 347 326 264 260 163 167 175 176 160 167 173 169 180 171 166 160 158 165 166 182 173 180 182 190 174 187 163 162 169 167 149 146 145 172 246 264 22 354 12 351 316 324 282 236
6 24 37 106 13 87 16 311 234 175 171 181 178 164 164 164 169 172 174 161 165 165 160 151 131 143 162 177 154 171 167 171 170 174 194 168 144 166 180 191 17 29 4 345 317 291 269 241 204
47 125 62 81 55 66 355 199 307 203 176 185 178 152 161 165 177 174 172 168 164 173 158 137 124 128 121 106 100 71 118 142 157 184 192 176 174 151 121 133 91 44 41 288 325 325 4 85 242
83 73 106 103 107 38 259 301 303 328 224 201 163 162 167 171 174 171 171 172 161 172 149 148 139 148 135 129 110 72 138 152 201 194 265 152 167 162 136 136 120 173 226 50 21 54 50 34 12
122 121 110 114 164 213 211 249 248 292 281 326 193 170 172 155 164 171 172 178 176 177 168 160 151 162 152 132 135 135 149 150 132 161 103 115 177 159 149 133 151 152 96 43 42 22 9 32 15
127 145 182 145 160 160 214 322 238 249 213 311 323 173 170 162 168 172 177 181 180 182 173 170 164 163 161 141 107 77 60 46 46 8 99 227 158 139 155 127 128 98 92 74 50 31 50 49 9
189 178 164 133 139 178 181 269 206 211 216 229 255 207 170 168 169 171 178 182 186 186 173 163 159 160 155 152 135 151 165 157 203 154 238 171 26 213 156 238 96 99 112 105 73 335 81 105 68
191 127 134 151 118 125 193 264 230 201 206 220 224 210 187 174 170 176 183 179 189 173 176 163 166 163 158 165 158 155 165 174 168 147 200 206 275 339 219 174 169 166 154 141 99 21 66 65 90
127 105 104 188 130 62 165 193 245 197 215 201 206 190 202 180 181 177 176 172 175 169 167 167 167 180 169 172 164 163 181 185 169 183 208 227 209 242 171 196 183 191 160 164 126 113 49 106 104
93 131 56 360 40 219 148 180 245 216 216 196 166 180 189 180 177 176 164 172 164 173 176 176 177 182 188 178 176 176 181 182 195 193 203 197 199 212 220 200 182 183 222 196 173 141 176 82 106
181 162 157 189 168 186 175 224 254 156 194 182 204 190 177 186 187 179 174 174 179 176 177 180 184 184 184 187 201 186 184 186 192 199 199 206 211 210 187 199 185 197 199 197 174 154 190 141 126
210 206 198 111 16 87 228 277 295 237 185 166 207 208 180 200 201 182 178 178 174 177 179 187 182 194 188 193 188 191 190 188 190 198 203 223 202 204 197 197 194 198 205 206 182 178 194 158 154
175 162 105 6 149 184 280 283 232 171 190 192 194 187 187 182 174 169 180 184 185 175 181 173 183 184 188 178 186 199 186 194 221 204 204 207 241 210 216 216 224 223 233 244 198 193 179 152 186
202 235 47 114 135 152 179 262 213 208 183 180 184 181 176 174 160 168 192 186 182 164 170 169 175 171 174 174 173 187 202 195 204 205 213 193 192 199 212 207 209 247 245 230 208 205 206 203 192
108 133 139 131 220 197 174 268 358 141 160 154 180 172 173 181 174 161 162 169 167 168 170 163 140 156 176 162 160 177 145 80 224 214 221 201 194 184 227 219 226 244 250 275 210 195 207 224 223